timestamp,wind_dir_avg,wind_spd_max_dir,wind_spd_avg,wind_spd_gust,battery_voltage,lat,long
2017-09-09 00:00:00+00:00,225.0,230.0,6.22,6.84,12.6,47.59359,-54.27349
2017-09-09 00:10:00+00:00,217.0,218.0,6.23,6.81,12.6,47.59359,-54.27349
2017-09-09 00:20:00+00:00,225.0,224.0,5.46,6.0,12.6,47.59359,-54.27349
2017-09-09 00:30:00+00:00,223.0,220.0,6.98,7.7,12.6,47.59359,-54.27349
2017-09-09 00:40:00+00:00,230.0,236.0,6.14,7.02,12.7,47.59359,-54.27349
2017-09-09 00:50:00+00:00,225.0,225.0,6.2,6.82,12.7,47.59359,-54.27349
2017-09-09 01:00:00+00:00,230.0,227.0,5.56,6.06,12.6,47.59359,-54.27349
2017-09-09 01:10:00+00:00,228.0,227.0,5.73,6.37,12.6,47.59359,-54.27349
2017-09-09 01:20:00+00:00,237.0,246.0,5.93,6.83,12.6,47.59359,-54.27349
2017-09-09 01:30:00+00:00,234.0,235.0,5.73,6.4,12.6,47.59359,-54.27349
2017-09-09 01:40:00+00:00,246.0,249.0,4.76,5.82,12.6,47.59359,-54.27349
2017-09-09 01:50:00+00:00,248.0,248.0,3.54,4.33,12.6,47.59359,-54.27349
2017-09-09 02:00:00+00:00,244.0,245.0,4.99,5.69,12.6,47.59359,-54.27349
2017-09-09 02:10:00+00:00,239.0,240.0,5.22,5.92,12.6,47.59359,-54.27349
2017-09-09 02:20:00+00:00,236.0,238.0,5.37,6.45,12.6,47.59359,-54.27349
2017-09-09 02:30:00+00:00,237.0,233.0,5.11,6.04,12.6,47.59359,-54.27349
2017-09-09 02:40:00+00:00,235.0,239.0,4.43,5.4,12.6,47.59359,-54.27349
2017-09-09 02:50:00+00:00,228.0,230.0,4.47,4.89,12.6,47.59359,-54.27349
2017-09-09 03:00:00+00:00,230.0,233.0,3.36,4.3,12.6,47.59359,-54.27349
2017-09-09 03:10:00+00:00,185.0,188.0,2.12,2.58,12.6,47.59359,-54.27349
2017-09-09 03:20:00+00:00,205.0,203.0,3.04,3.36,12.6,47.59359,-54.27349
2017-09-09 03:30:00+00:00,221.0,212.0,3.7,4.66,12.6,47.59359,-54.27349
2017-09-09 03:40:00+00:00,236.0,235.0,3.73,4.11,12.6,47.59359,-54.27349
2017-09-09 03:50:00+00:00,254.0,253.0,3.0,3.62,12.6,47.59359,-54.27349
2017-09-09 04:00:00+00:00,207.0,205.0,2.57,2.75,12.6,47.59359,-54.27349
2017-09-09 04:10:00+00:00,223.0,222.0,3.86,4.42,12.6,47.59359,-54.27349
2017-09-09 04:20:00+00:00,241.0,239.0,3.91,4.44,12.6,47.59359,-54.27349
2017-09-09 04:30:00+00:00,234.0,234.0,3.93,4.36,12.6,47.59359,-54.27349
2017-09-09 04:40:00+00:00,231.0,231.0,3.93,4.21,12.6,47.59359,-54.27349
2017-09-09 04:50:00+00:00,231.0,232.0,4.0,4.3,12.6,47.59359,-54.27349
2017-09-09 05:00:00+00:00,231.0,231.0,4.77,5.12,12.6,47.59359,-54.27349
2017-09-09 05:10:00+00:00,230.0,232.0,4.0,4.51,12.6,47.59359,-54.27349
2017-09-09 05:20:00+00:00,223.0,222.0,3.74,4.03,12.6,47.59359,-54.27349
2017-09-09 05:30:00+00:00,209.0,209.0,3.71,3.99,12.6,47.59359,-54.27349
2017-09-09 05:40:00+00:00,204.0,204.0,2.75,3.12,12.6,47.59359,-54.27349
2017-09-09 05:50:00+00:00,223.0,233.0,3.35,3.8,12.6,47.59359,-54.27349
2017-09-09 06:00:00+00:00,196.0,204.0,2.8,3.13,12.6,47.59359,-54.27349
2017-09-09 06:10:00+00:00,219.0,212.0,3.21,4.04,12.5,47.59359,-54.27349
2017-09-09 06:20:00+00:00,228.0,227.0,2.28,2.65,12.6,47.59359,-54.27349
2017-09-09 06:30:00+00:00,212.0,217.0,1.8,2.04,12.6,47.59359,-54.27349
2017-09-09 06:40:00+00:00,209.0,213.0,1.63,1.78,12.6,47.59359,-54.27349
2017-09-09 06:50:00+00:00,228.0,218.0,0.26,0.37,12.6,47.59359,-54.27349
2017-09-09 07:00:00+00:00,262.0,262.0,1.63,1.75,12.6,47.59359,-54.27349
2017-09-09 07:10:00+00:00,243.0,235.0,0.85,1.05,12.5,47.59359,-54.27349
2017-09-09 07:20:00+00:00,250.0,248.0,2.17,2.35,12.6,47.59359,-54.27349
2017-09-09 07:30:00+00:00,257.0,254.0,2.7,3.05,12.6,47.59359,-54.27349
2017-09-09 07:40:00+00:00,304.0,307.0,1.78,2.03,12.6,47.59359,-54.27349
2017-09-09 07:50:00+00:00,316.0,311.0,1.52,1.76,12.6,47.59359,-54.27349
2017-09-09 08:00:00+00:00,338.0,338.0,0.7,0.86,12.6,47.59359,-54.27349
2017-09-09 08:10:00+00:00,313.0,299.0,0.31,0.52,12.5,47.59359,-54.27349
2017-09-09 08:20:00+00:00,116.0,113.0,0.61,0.67,12.6,47.59359,-54.27349
2017-09-09 08:30:00+00:00,164.0,180.0,0.6,0.68,12.6,47.59359,-54.27349
2017-09-09 08:40:00+00:00,219.0,225.0,1.37,1.6,12.6,47.59359,-54.27349
2017-09-09 08:50:00+00:00,327.0,344.0,0.22,0.32,12.6,47.59359,-54.27349
2017-09-09 09:00:00+00:00,142.0,142.0,0.68,0.84,12.6,47.59359,-54.27349
2017-09-09 09:10:00+00:00,55.0,50.0,0.44,0.58,12.5,47.59359,-54.27349
2017-09-09 09:20:00+00:00,33.0,40.0,2.19,2.45,12.6,47.59359,-54.27349
2017-09-09 09:30:00+00:00,20.0,18.0,2.46,2.74,12.6,47.59359,-54.27349
2017-09-09 09:40:00+00:00,44.0,55.0,3.25,3.91,12.6,47.59359,-54.27349
2017-09-09 09:50:00+00:00,19.0,21.0,3.28,3.57,12.6,47.59359,-54.27349
2017-09-09 10:00:00+00:00,27.0,36.0,1.94,2.48,12.6,47.59359,-54.27349
2017-09-09 10:10:00+00:00,50.0,49.0,2.88,3.04,12.6,47.59359,-54.27349
2017-09-09 10:20:00+00:00,38.0,40.0,3.03,3.3,12.6,47.59359,-54.27349
2017-09-09 10:30:00+00:00,53.0,46.0,1.91,2.28,12.6,47.59359,-54.27349
2017-09-09 10:40:00+00:00,37.0,40.0,2.87,3.04,12.6,47.59359,-54.27349
2017-09-09 10:50:00+00:00,73.0,72.0,1.84,2.15,12.7,47.59359,-54.27349
2017-09-09 11:00:00+00:00,47.0,37.0,2.24,2.64,12.6,47.59359,-54.27349
2017-09-09 11:10:00+00:00,53.0,57.0,1.88,2.04,12.6,47.59359,-54.27349
2017-09-09 11:20:00+00:00,64.0,73.0,1.24,1.61,12.6,47.59359,-54.27349
2017-09-09 11:30:00+00:00,78.0,80.0,2.43,2.88,12.6,47.59359,-54.27349
2017-09-09 11:40:00+00:00,69.0,69.0,3.41,3.73,12.6,47.59359,-54.27349
2017-09-09 11:50:00+00:00,61.0,61.0,3.36,3.77,12.6,47.59359,-54.27349
2017-09-09 12:00:00+00:00,58.0,61.0,4.63,4.88,12.6,47.59359,-54.27349
2017-09-09 12:10:00+00:00,53.0,60.0,4.28,4.73,12.6,47.59359,-54.27349
2017-09-09 12:20:00+00:00,60.0,56.0,3.17,3.56,12.6,47.59359,-54.27349
2017-09-09 12:30:00+00:00,63.0,67.0,3.02,3.25,12.7,47.59359,-54.27349
2017-09-09 12:40:00+00:00,58.0,58.0,3.09,3.29,12.8,47.59359,-54.27349
2017-09-09 12:50:00+00:00,58.0,57.0,4.07,4.48,12.8,47.59359,-54.27349
2017-09-09 13:00:00+00:00,60.0,60.0,3.64,3.9,12.8,47.59359,-54.27349
2017-09-09 13:10:00+00:00,69.0,72.0,4.12,4.53,12.6,47.59359,-54.27349
2017-09-09 13:20:00+00:00,76.0,77.0,3.52,3.7,12.7,47.59359,-54.27349
2017-09-09 13:30:00+00:00,81.0,78.0,3.66,4.16,12.8,47.59359,-54.27349
2017-09-09 13:40:00+00:00,83.0,74.0,3.25,3.87,12.9,47.59359,-54.27349
2017-09-09 13:50:00+00:00,82.0,86.0,3.04,3.52,13.0,47.59359,-54.27349
2017-09-09 14:00:00+00:00,163.0,163.0,2.74,2.92,12.9,47.59359,-54.27349
2017-09-09 14:10:00+00:00,135.0,139.0,2.97,3.37,12.9,47.59359,-54.27349
2017-09-09 14:20:00+00:00,154.0,158.0,2.27,2.5,13.0,47.59359,-54.27349
2017-09-09 14:30:00+00:00,183.0,180.0,2.37,2.66,13.0,47.59359,-54.27349
2017-09-09 14:40:00+00:00,176.0,181.0,2.42,2.66,13.0,47.59359,-54.27349
2017-09-09 14:50:00+00:00,194.0,195.0,2.55,2.7,13.1,47.59359,-54.27349
2017-09-09 15:00:00+00:00,191.0,184.0,1.56,1.86,13.1,47.59359,-54.27349
2017-09-09 15:10:00+00:00,174.0,173.0,2.06,2.24,13.0,47.59359,-54.27349
2017-09-09 15:20:00+00:00,145.0,126.0,1.53,1.93,13.2,47.59359,-54.27349
2017-09-09 15:30:00+00:00,152.0,156.0,1.58,1.73,13.2,47.59359,-54.27349
2017-09-09 15:40:00+00:00,127.0,123.0,1.28,1.56,13.2,47.59359,-54.27349
2017-09-09 15:50:00+00:00,128.0,122.0,2.12,2.67,13.3,47.59359,-54.27349
2017-09-09 16:00:00+00:00,102.0,101.0,1.71,2.87,13.3,47.59359,-54.27349
2017-09-09 16:10:00+00:00,139.0,124.0,1.22,2.17,13.0,47.59359,-54.27349
2017-09-09 16:20:00+00:00,117.0,127.0,0.89,1.44,13.2,47.59359,-54.27349
2017-09-09 16:30:00+00:00,145.0,146.0,0.79,0.9,13.3,47.59359,-54.27349
2017-09-09 16:40:00+00:00,184.0,185.0,0.61,0.81,13.5,47.59359,-54.27349
2017-09-09 16:50:00+00:00,189.0,202.0,0.24,0.33,13.7,47.59359,-54.27349
2017-09-09 17:00:00+00:00,4.0,5.0,1.57,1.75,13.6,47.59359,-54.27349
2017-09-09 17:10:00+00:00,14.0,16.0,2.41,2.64,13.5,47.59359,-54.27349
2017-09-09 17:20:00+00:00,14.0,7.0,2.56,2.83,13.7,47.59359,-54.27349
2017-09-09 17:30:00+00:00,17.0,18.0,2.15,2.59,13.7,47.59359,-54.27349
2017-09-09 17:40:00+00:00,11.0,15.0,2.36,2.55,13.6,47.59359,-54.27349
2017-09-09 17:50:00+00:00,15.0,13.0,3.33,3.62,13.7,47.59359,-54.27349
2017-09-09 18:00:00+00:00,23.0,32.0,2.42,2.94,13.5,47.59359,-54.27349
2017-09-09 18:10:00+00:00,31.0,33.0,3.16,3.41,13.4,47.59359,-54.27349
2017-09-09 18:20:00+00:00,45.0,44.0,3.98,4.23,13.6,47.59359,-54.27349
2017-09-09 18:30:00+00:00,52.0,58.0,3.97,4.6,13.7,47.59359,-54.27349
2017-09-09 18:40:00+00:00,62.0,56.0,3.7,4.12,13.7,47.59359,-54.27349
2017-09-09 18:50:00+00:00,53.0,55.0,4.22,5.0,13.7,47.59359,-54.27349
2017-09-09 19:00:00+00:00,55.0,56.0,5.19,5.46,13.4,47.59359,-54.27349
2017-09-09 19:10:00+00:00,50.0,50.0,5.11,5.32,13.3,47.59359,-54.27349
2017-09-09 19:20:00+00:00,43.0,40.0,4.26,4.58,13.3,47.59359,-54.27349
2017-09-09 19:30:00+00:00,49.0,54.0,4.51,4.87,13.3,47.59359,-54.27349
2017-09-09 19:40:00+00:00,52.0,53.0,5.47,5.83,13.4,47.59359,-54.27349
2017-09-09 19:50:00+00:00,54.0,53.0,5.82,6.19,13.4,47.59359,-54.27349
2017-09-09 20:00:00+00:00,56.0,52.0,4.57,5.37,13.4,47.59359,-54.27349
2017-09-09 20:10:00+00:00,59.0,60.0,5.24,5.81,13.3,47.59359,-54.27349
2017-09-09 20:20:00+00:00,57.0,57.0,5.19,5.61,13.3,47.59359,-54.27349
2017-09-09 20:30:00+00:00,60.0,60.0,5.07,5.6,13.2,47.59359,-54.27349
2017-09-09 20:40:00+00:00,61.0,58.0,5.92,6.57,13.2,47.59359,-54.27349
2017-09-09 20:50:00+00:00,61.0,65.0,5.75,7.02,13.1,47.59359,-54.27349
2017-09-09 21:00:00+00:00,58.0,58.0,6.04,6.9,13.0,47.59359,-54.27349
2017-09-09 21:10:00+00:00,60.0,55.0,5.85,6.48,12.9,47.59359,-54.27349
2017-09-09 21:20:00+00:00,58.0,55.0,6.43,7.49,12.9,47.59359,-54.27349
2017-09-09 21:30:00+00:00,61.0,63.0,5.02,5.9,12.8,47.59359,-54.27349
2017-09-09 21:40:00+00:00,65.0,64.0,4.98,5.71,12.8,47.59359,-54.27349
2017-09-09 21:50:00+00:00,66.0,61.0,5.72,6.19,12.8,47.59359,-54.27349
2017-09-09 22:00:00+00:00,72.0,71.0,6.42,7.02,12.7,47.59359,-54.27349
2017-09-09 22:10:00+00:00,70.0,70.0,6.63,7.42,12.6,47.59359,-54.27349
2017-09-09 22:20:00+00:00,67.0,66.0,6.88,8.04,12.7,47.59359,-54.27349
2017-09-09 22:30:00+00:00,63.0,64.0,7.03,8.0,12.7,47.59359,-54.27349
2017-09-09 22:40:00+00:00,68.0,72.0,7.09,7.72,12.7,47.59359,-54.27349
2017-09-09 22:50:00+00:00,64.0,64.0,6.74,7.61,12.7,47.59359,-54.27349
2017-09-09 23:00:00+00:00,70.0,71.0,6.3,7.57,12.6,47.59359,-54.27349
2017-09-09 23:10:00+00:00,67.0,69.0,6.28,6.92,12.6,47.59359,-54.27349
2017-09-09 23:20:00+00:00,63.0,63.0,6.46,6.95,12.7,47.59359,-54.27349
2017-09-09 23:30:00+00:00,61.0,62.0,5.17,5.89,12.7,47.59359,-54.27349
2017-09-09 23:40:00+00:00,59.0,58.0,5.5,5.61,12.7,47.59359,-54.27349
2017-09-09 23:50:00+00:00,40.0,48.0,3.89,5.98,12.7,47.59359,-54.27349
